Regional Weather Roundup
Issued by NWS Mobile, AL

Home | Current Version | Previous Version | Text Only | Print | Product List | Glossary On
Versions: 1 2 3 4 5 6 7 8 9 10 11 12 13 14 15 16 17 18 19 20 21 22 23 24 25 26 27
000
ASUS44 KMOB 230712
RWRMOB
REGIONAL WEATHER ROUNDUP
NATIONAL WEATHER SERVICE MOBILE AL
100 AM CST MON JAN 23 2017

NOTE: "FAIR" INDICATES FEW OR NO CLOUDS BELOW 12,000 FEET WITH NO
      SIGNIFICANT WEATHER AND/OR OBSTRUCTIONS TO VISIBILITY.

  * THESE STATIONS ARE PART OF THE UNIVERSITY OF SOUTH ALABAMA
    MESONET AND ARE NOT UNDER NWS OR FAA QUALITY CONTROL.

ALZ061>064-230800-
COASTAL ALABAMA

CITY           SKY/WX    TMP DP  RH WIND       PRES   REMARKS
MOBILE REG APT CLOUDY    56  47  71 W12G20    29.51S
BROOKLEY FIELD CLOUDY    58  48  69 W10G21    29.51S
USA CAMPUS*      N/A     55  48  76 NW5       29.51R
DOG RIVER*       N/A     55  48  76 W14       30.11R


CITY           SKY/WX    TMP DP  RH WIND       PRES   REMARKS
GULF SHORES    MOCLDY    56  48  72 W17G29    29.51R

$$

ALZ051>060-230800-
INTERIOR SOUTHWEST AND SOUTH CENTRAL ALABAMA

CITY           SKY/WX    TMP DP  RH WIND       PRES   REMARKS
GREENVILLE     LGT RAIN  52  47  83 W13G20    29.38F
EVERGREEN      LGT RAIN  53  48  83 W8        29.43F
ATMORE*        NOT AVBL
ANDALUSIA/OPP  LGT RAIN  55  44  66 W9        29.42F
ANDALUSIA*       N/A     52  46  82 W9        29.43S
FLORALA APT    LGT RAIN  54  42  64 W6        29.44F
FLORALA*         N/A     54  43  66 SW8       29.99S

$$

FLZ001>006-230800-
WESTERN FLORIDA PANHANDLE

CITY           SKY/WX    TMP DP  RH WIND       PRES   REMARKS
PENSACOLA      PTCLDY    58  44  60 W13       29.47F
NAS PENSACOLA  PTCLDY    57  45  64 W8G18     29.48F
MILTON         LGT RAIN  55  43  63 W14       29.46F
WHTNG S FIELD  CLOUDY    58  44  60 MISG      29.46F


CITY           SKY/WX    TMP DP  RH WIND       PRES   REMARKS
JAY*             N/A     54  43  66 W7        29.47S
DUKE FIELD     PTCLDY    56  41  58 W10       29.44F
CRESTVIEW      MOCLDY    55  41  59 W8        29.46F
VALPARAISO     PTCLDY    57  42  57 W16       29.46S
DESTIN         CLEAR     61  45  55 W6        29.46F

$$

MSZ076-079-230800-
INTERIOR SOUTHEAST MISSISSIPPI

CITY           SKY/WX    TMP DP  RH WIND       PRES   REMARKS
LEAKESVILLE*   NOT AVBL
AGRICOLA*      NOT AVBL

$$

MARINE OBSERVATIONS

STATION/POSITION TIME  TEMP    WIND        PRES    WAVE
                       AIR SEA DIR/SP/G            HT/PER
                 (UTC) (F)     (DEG/KT/KT) (MB)    (FT/S)
PASCAGOULA       0648   57     290/ 14/ 19  999.9S
PETIT BOIS ISLND 0648   59     290/ 23/ 31 1000.8F
GRAND BAY        0530   56     300/ 12     1000.0S
KATRINA CUT      0630          290/ 29      999.3S
CEDAR POINT      0630   58     290/ 25      999.0F
E DAUPHIN ISLAND 0600   58     280/ 19/ 23  999.2S
MIDDLE BAY LIGHT 0630   58     280/ 22      999.0S
USCG MOBILE BAY  0648   56 64  280/  9/ 16  999.5R
STATE DOCKS      0648   57 62               998.7R
MEAHER PARK      0630   57     280/ 14      998.6F
WEEKS BAY        0545   58                   N/A
FORT MORGAN      0648   58     290/ 29/ 34   N/A
12 S ORANGE BCH  0650   60 65  290/ 25/ 33  998.6R   9/ 6
PENSACOLA BAY    0648   58 62  280/  8/ 13  998.3F
67 S FORT MORGAN 0630   62                 1000.7S

$$

SELECTED LOCATIONS ACROSS THE REGION

CITY           SKY/WX    TMP DP  RH WIND       PRES   REMARKS
NEW ORLEANS    CLOUDY    58  50  75 NW21G28   29.66R
GULFPORT       CLOUDY    58  50  75 W17G24    29.55S
PASCAGOULA AP  CLOUDY    57  48  72 W10G18    29.53S
PASCAGOULA*    NOT AVBL
HATTIESBURG    CLOUDY    57  51  80 W21G30    29.54R
LAUREL         CLOUDY    55  48  76 NW13G21   29.55R
MERIDIAN       CLOUDY    56  54  93 NW13      29.47R
JACKSON        CLOUDY    54  49  83 NW14G29   29.58R
MONTGOMERY     LGT RAIN  53  47  79 SW10      29.36F
TROY           LGT RAIN  52  47  83 SW12G21   29.38F
ASHFORD*         N/A     52  46  82 W9        29.43S
DOTHAN         MOCLDY    53  44  71 W14G21    29.43F
PANAMA CITY    CLEAR     59  43  55 W10       29.44F

$$





USA.gov is the U.S. government's official web portal to all federal, state and local government web resources and services.